timestamp,surface_pressure_avg,surface_temp_avg,battery_voltage,lat,long
2022-06-07 00:09:01+00:00,233.2164,4.4,12.09,47.84626,-54.09684
2022-06-07 00:19:00+00:00,239.0098,4.4,12.09,47.84626,-54.09684
2022-06-07 00:29:00+00:00,240.3848,4.4,12.09,47.84626,-54.09684
2022-06-07 00:39:00+00:00,239.4048,4.4,12.09,47.84626,-54.09684
2022-06-07 00:49:00+00:00,245.9081,4.45,12.09,47.84626,-54.09684
2022-06-07 00:59:00+00:00,253.5598,4.5,12.09,47.84626,-54.09684
2022-06-07 01:09:00+00:00,251.0981,4.5,12.09,47.84626,-54.09684
2022-06-07 01:19:01+00:00,250.6331,4.5,12.01,47.84626,-54.09684
2022-06-07 01:29:01+00:00,259.8914,4.5,12.01,47.84626,-54.09684
2022-06-07 01:39:01+00:00,268.2147,4.54,12.01,47.84626,-54.09684
2022-06-07 01:49:01+00:00,271.2614,4.6,12.01,47.84626,-54.09684
2022-06-07 01:59:01+00:00,275.5298,4.68,12.01,47.84626,-54.09684
2022-06-07 02:09:01+00:00,283.8763,4.44,12.01,47.84626,-54.09684
2022-06-07 02:19:01+00:00,286.6197,4.59,12.01,47.84626,-54.09684
2022-06-07 02:29:01+00:00,290.9864,4.8,12.01,47.84626,-54.09684
2022-06-07 02:39:01+00:00,297.738,4.87,12.01,47.84626,-54.09684
2022-06-07 02:49:01+00:00,303.2646,4.8,12.01,47.84626,-54.09684
2022-06-07 02:59:01+00:00,304.0047,4.8,12.01,47.84626,-54.09684
2022-06-07 03:09:01+00:00,310.3697,4.8,12.01,47.84626,-54.09684
2022-06-07 03:19:00+00:00,313.7679,4.85,12.01,47.84626,-54.09684
2022-06-07 03:29:00+00:00,313.2981,4.9,12.01,47.84626,-54.09684
2022-06-07 03:39:00+00:00,315.013,4.9,12.01,47.84626,-54.09684
2022-06-07 03:49:00+00:00,324.568,4.54,12.01,47.84626,-54.09684
2022-06-07 03:59:00+00:00,324.0997,4.5,12.01,47.84626,-54.09684
2022-06-07 04:09:00+00:00,319.268,4.59,12.01,47.84626,-54.09684
2022-06-07 04:19:00+00:00,325.2897,4.6,12.01,47.84626,-54.09684
2022-06-07 04:29:00+00:00,328.3247,4.6,12.01,47.84626,-54.09684
2022-06-07 04:39:00+00:00,320.4913,4.67,12.01,47.84626,-54.09684
2022-06-07 04:49:00+00:00,323.8297,4.6,12.01,47.84626,-54.09684
2022-06-07 04:59:00+00:00,332.1146,4.4,12.01,47.84626,-54.09684
2022-06-07 05:09:00+00:00,327.4363,4.65,12.01,47.84626,-54.09684
2022-06-07 05:19:01+00:00,318.0413,4.7,12.01,47.84626,-54.09684
2022-06-07 05:29:01+00:00,323.0031,4.5,12.01,47.84626,-54.09684
2022-06-07 05:39:01+00:00,326.2645,4.55,12.01,47.84626,-54.09684
2022-06-07 05:49:01+00:00,320.9581,4.77,12.01,47.84626,-54.09684
2022-06-07 05:59:01+00:00,317.5231,4.9,12.01,47.84626,-54.09684
2022-06-07 06:09:01+00:00,316.7563,4.9,12.01,47.84626,-54.09684
2022-06-07 06:19:00+00:00,312.233,4.99,11.93,47.84626,-54.09684
2022-06-07 06:29:00+00:00,307.858,5.02,11.93,47.84626,-54.09684
2022-06-07 06:39:00+00:00,311.5831,5.09,11.93,47.84626,-54.09684
2022-06-07 06:49:00+00:00,309.7547,5.1,11.93,47.84626,-54.09684
2022-06-07 06:59:00+00:00,304.0997,5.1,11.93,47.84626,-54.09684
2022-06-07 07:09:00+00:00,302.6863,5.1,11.93,47.84626,-54.09684
2022-06-07 07:19:00+00:00,303.3164,5.1,11.93,47.84626,-54.09684
2022-06-07 07:29:00+00:00,292.603,5.06,11.93,47.84626,-54.09684
2022-06-07 07:39:00+00:00,285.4897,5.1,11.93,47.84626,-54.09684
2022-06-07 07:49:00+00:00,280.9597,5.1,11.93,47.84626,-54.09684
2022-06-07 07:59:00+00:00,275.9948,5.0,11.93,47.84626,-54.09684
2022-06-07 08:09:00+00:00,269.7898,5.08,11.93,47.84626,-54.09684
2022-06-07 08:19:00+00:00,266.0747,5.09,11.93,47.84626,-54.09684
2022-06-07 08:29:00+00:00,258.1031,5.09,11.93,47.84626,-54.09684
2022-06-07 08:39:00+00:00,251.6948,5.09,11.93,47.84626,-54.09684
2022-06-07 08:49:00+00:00,249.2097,5.09,11.93,47.84626,-54.09684
2022-06-07 08:59:00+00:00,244.1264,5.1,11.93,47.84626,-54.09684
2022-06-07 09:09:00+00:00,236.7931,5.1,11.93,47.84626,-54.09684
2022-06-07 09:19:00+00:00,231.0631,5.1,11.93,47.84626,-54.09684
2022-06-07 09:29:00+00:00,229.0482,5.1,11.93,47.84626,-54.09684
2022-06-07 09:39:00+00:00,227.2248,5.1,11.93,47.84626,-54.09684
2022-06-07 09:49:00+00:00,223.9581,5.1,11.93,47.84626,-54.09684
2022-06-07 09:59:00+00:00,225.0998,5.1,11.93,47.84626,-54.09684
2022-06-07 10:09:00+00:00,227.3247,5.09,11.93,47.84626,-54.09684
2022-06-07 10:19:01+00:00,222.3731,4.91,12.01,47.84626,-54.09684
2022-06-07 10:29:01+00:00,219.5182,5.07,12.01,47.84626,-54.09684
2022-06-07 10:39:01+00:00,225.3148,5.1,12.01,47.84626,-54.09684
2022-06-07 10:49:01+00:00,228.1848,4.96,12.01,47.84626,-54.09684
2022-06-07 10:59:01+00:00,224.5065,5.03,12.01,47.84626,-54.09684
2022-06-07 11:09:01+00:00,222.5548,5.1,12.01,47.84626,-54.09684
2022-06-07 11:19:01+00:00,227.5764,5.12,12.17,47.84626,-54.09684
2022-06-07 11:29:01+00:00,231.0547,5.19,12.17,47.84626,-54.09684
2022-06-07 11:39:01+00:00,225.5714,5.2,12.17,47.84626,-54.09684
2022-06-07 11:49:01+00:00,224.8781,5.29,12.17,47.84626,-54.09684
2022-06-07 11:59:01+00:00,230.7781,5.28,12.17,47.84626,-54.09684
2022-06-07 12:09:01+00:00,231.8164,5.2,12.17,47.84626,-54.09684
2022-06-07 12:19:00+00:00,229.0731,5.2,12.17,47.84626,-54.09684
2022-06-07 12:29:00+00:00,230.1747,5.3,12.17,47.84626,-54.09684
2022-06-07 12:39:00+00:00,232.5947,5.29,12.17,47.84626,-54.09684
2022-06-07 12:49:00+00:00,231.6981,5.2,12.17,47.84626,-54.09684
2022-06-07 12:59:00+00:00,234.673,5.1,12.17,47.84626,-54.09684
2022-06-07 13:09:00+00:00,239.4398,5.05,12.17,47.84626,-54.09684
2022-06-07 13:19:00+00:00,240.7264,5.1,12.33,47.84626,-54.09684
2022-06-07 13:29:00+00:00,239.8531,5.17,12.33,47.84626,-54.09684
2022-06-07 13:39:00+00:00,243.683,5.2,12.33,47.84626,-54.09684
2022-06-07 13:49:00+00:00,249.7648,5.3,12.33,47.84626,-54.09684
2022-06-07 13:59:00+00:00,252.1081,5.19,12.33,47.84626,-54.09684
2022-06-07 14:09:00+00:00,253.7414,5.1,12.33,47.84626,-54.09684
2022-06-07 14:19:01+00:00,260.9181,5.1,12.49,47.84626,-54.09684
2022-06-07 14:29:01+00:00,268.1414,5.1,12.49,47.84626,-54.09684
2022-06-07 14:39:01+00:00,269.4897,5.23,12.49,47.84626,-54.09684
2022-06-07 14:49:01+00:00,271.5031,5.3,12.49,47.84626,-54.09684
2022-06-07 14:59:01+00:00,279.4747,5.21,12.49,47.84626,-54.09684
2022-06-07 15:09:01+00:00,285.463,5.14,12.49,47.84626,-54.09684
2022-06-07 15:19:00+00:00,285.0547,5.2,12.41,47.84626,-54.09684
2022-06-07 15:29:00+00:00,289.0114,5.1,12.41,47.84626,-54.09684
2022-06-07 15:39:00+00:00,294.7664,5.1,12.41,47.84626,-54.09684
2022-06-07 15:49:00+00:00,297.7097,5.1,12.41,47.84626,-54.09684
2022-06-07 15:59:00+00:00,297.3513,5.1,12.41,47.84626,-54.09684
2022-06-07 16:09:00+00:00,301.2114,5.0,12.41,47.84626,-54.09684
2022-06-07 16:19:00+00:00,302.5214,5.0,12.41,47.84626,-54.09684
2022-06-07 16:29:00+00:00,304.8197,4.99,12.41,47.84626,-54.09684
2022-06-07 16:39:00+00:00,307.438,4.92,12.41,47.84626,-54.09684
2022-06-07 16:49:00+00:00,310.8097,5.0,12.41,47.84626,-54.09684
2022-06-07 16:59:00+00:00,310.453,5.0,12.41,47.84626,-54.09684
2022-06-07 17:09:00+00:00,313.2464,5.0,12.41,47.84626,-54.09684
2022-06-07 17:19:01+00:00,315.1862,4.99,12.33,47.84626,-54.09684
2022-06-07 17:29:01+00:00,315.5464,5.0,12.33,47.84626,-54.09684
2022-06-07 17:39:01+00:00,313.108,4.9,12.33,47.84626,-54.09684
2022-06-07 17:49:01+00:00,315.8463,4.89,12.33,47.84626,-54.09684
2022-06-07 17:59:01+00:00,317.4547,4.87,12.33,47.84626,-54.09684
2022-06-07 18:09:01+00:00,312.7613,4.89,12.33,47.84626,-54.09684
2022-06-07 18:19:00+00:00,310.8447,4.87,12.25,47.84626,-54.09684
2022-06-07 18:29:00+00:00,315.408,4.86,12.25,47.84626,-54.09684
2022-06-07 18:39:00+00:00,314.403,4.89,12.25,47.84626,-54.09684
2022-06-07 18:49:00+00:00,308.2147,4.9,12.25,47.84626,-54.09684
2022-06-07 18:59:00+00:00,303.298,4.9,12.25,47.84626,-54.09684
2022-06-07 19:09:00+00:00,301.4881,4.88,12.25,47.84626,-54.09684
2022-06-07 19:19:01+00:00,297.3564,4.9,12.17,47.84626,-54.09684
2022-06-07 19:29:01+00:00,294.563,4.88,12.17,47.84626,-54.09684
2022-06-07 19:39:01+00:00,287.4497,4.85,12.17,47.84626,-54.09684
2022-06-07 19:49:01+00:00,276.918,4.81,12.17,47.84626,-54.09684
2022-06-07 19:59:01+00:00,273.2064,6.17,12.17,47.84626,-54.09684
2022-06-07 20:09:01+00:00,273.8281,6.26,12.17,47.84626,-54.09684
2022-06-07 20:19:00+00:00,267.0531,6.3,12.17,47.84626,-54.09684
2022-06-07 20:29:00+00:00,259.0365,5.21,12.17,47.84626,-54.09684
2022-06-07 20:39:00+00:00,259.0681,4.9,12.17,47.84626,-54.09684
2022-06-07 20:49:00+00:00,257.9714,4.9,12.17,47.84626,-54.09684
2022-06-07 20:59:00+00:00,249.4915,4.95,12.17,47.84626,-54.09684
2022-06-07 21:09:00+00:00,245.2764,5.48,12.17,47.84626,-54.09684
2022-06-07 21:19:01+00:00,248.4514,5.7,12.09,47.84626,-54.09684
2022-06-07 21:29:01+00:00,244.2214,5.65,12.09,47.84626,-54.09684
2022-06-07 21:39:01+00:00,235.1231,5.7,12.09,47.84626,-54.09684
2022-06-07 21:49:01+00:00,234.8448,5.3,12.09,47.84626,-54.09684
2022-06-07 21:59:01+00:00,236.0797,5.2,12.09,47.84626,-54.09684
2022-06-07 22:09:01+00:00,232.2464,5.3,12.09,47.84626,-54.09684
2022-06-07 22:19:00+00:00,228.1648,5.4,12.09,47.84626,-54.09684
2022-06-07 22:29:00+00:00,228.0414,5.39,12.09,47.84626,-54.09684
2022-06-07 22:39:00+00:00,231.0348,5.3,12.09,47.84626,-54.09684
2022-06-07 22:49:00+00:00,230.7115,5.19,12.09,47.84626,-54.09684
2022-06-07 22:59:00+00:00,228.3698,5.29,12.09,47.84626,-54.09684
2022-06-07 23:09:00+00:00,227.2864,5.29,12.09,47.84626,-54.09684
2022-06-07 23:19:01+00:00,229.9115,5.23,12.09,47.84626,-54.09684
2022-06-07 23:29:01+00:00,232.223,5.28,12.09,47.84626,-54.09684
2022-06-07 23:39:01+00:00,231.8832,5.3,12.09,47.84626,-54.09684
2022-06-07 23:49:01+00:00,234.3231,5.3,12.09,47.84626,-54.09684
2022-06-07 23:59:01+00:00,236.6281,5.3,12.09,47.84626,-54.09684
